This is the latest recevied weather packets stored in our database for station/object OK5TVR-6. If no packets are shown the sender has not sent any weather packets the latest 1 day(s).
| Time | Temp. | Humidity | Pressure | Rain* | Wind** | Luminosity | Snow |
|---|---|---|---|---|---|---|---|
| 1777980323 | 32.78° C | - | - | 0 mm | 14.75 m/s, 0° | - | - |
| 1777979226 | 32.78° C | - | - | 0 mm | 23.25 m/s, 0° | - | - |
| 1777978130 | 31.11° C | - | - | 0 mm | 12.52 m/s, 315° | - | - |
| 1777977033 | 31.11° C | - | - | 0 mm | 14.75 m/s, 0° | - | - |
| 1777975937 | 31.11° C | - | - | 0 mm | 9.83 m/s, 45° | - | - |
| 1777974840 | 31.11° C | - | - | 0 mm | 10.28 m/s, 90° | - | - |
| 1777973743 | 30° C | - | - | 0 mm | 21.9 m/s, 315° | - | - |
| 1777972647 | 28.89° C | - | - | 0 mm | 13.41 m/s, 0° | - | - |
| 1777971550 | 26.67° C | - | - | 0 mm | 8.05 m/s, 0° | - | - |
| 1777970454 | 26.11° C | - | - | 0 mm | 12.96 m/s, 270° | - | - |
| 1777969357 | 25.56° C | - | - | 0 mm | 21.9 m/s, 315° | - | - |
| 1777968261 | 26.11° C | - | - | 0 mm | 0 m/s | - | - |
| 1777967164 | 24.44° C | - | - | 0 mm | 8.94 m/s, 222° | - | - |
| 1777966068 | 24.44° C | - | - | 0 mm | 11.18 m/s, 180° | - | - |
| 1777964971 | 23.33° C | - | - | 0 mm | 8.49 m/s, 90° | - | - |
| 1777963874 | 22.22° C | - | - | 0 mm | 5.81 m/s, 135° | - | - |
| 1777962778 | 21.11° C | - | - | 0 mm | 11.18 m/s, 0° | - | - |
| 1777961681 | 18.89° C | - | - | 0 mm | 4.92 m/s, 90° | - | - |
| 1777960585 | 17.22° C | - | - | 0 mm | 4.92 m/s, 0° | - | - |
| 1777959488 | 15.56° C | - | - | 0 mm | 0 m/s | - | - |
| 1777958392 | 16.11° C | - | - | 0 mm | 0 m/s | - | - |
| 1777957295 | 15° C | - | - | 0 mm | 0 m/s | - | - |
| 1777956198 | 13.89° C | - | - | 0 mm | 4.92 m/s, 270° | - | - |
| 1777955102 | 13.33° C | - | - | 0 mm | 0 m/s | - | - |
| 1777954005 | 13.33° C | - | - | 0 mm | 0 m/s | - | - |
* Rain latest hour (hover to see other rain measurements)
** Current wind speed in m/s (hover to see current wind gust speed)